Home > Weather > Swanage > Past weeks

Flag for United Kingdom Past Weather in Swanage, England, United Kingdom — Yesterday and Last 2 Weeks

Now
48 °F

Fog.


Feels Like: 48 °F
Forecast: 52 / 71 °F
Wind: 2 mph from North

Location: Bournemouth Airport

Current Time: Aug 30, 2016 at 6:23:24 AM

Latest Report: Aug 30, 2016 at 5:50 AM


Visibility: N/A

Pressure: 30.27 "Hg

Humidity: 94%

Dew Point: 46 °F

Location of SwanageLocation

Past Weather in Swanage — Graph

°F

Swanage Temperature Yesterday

Maximum temperature yesterday: 77 °F (at 4:20 PM)
Minimum temperature yesterday: 55 °F (at 5:50 AM)
Average temperature yesterday: 66 °F

High & Low Weather Summary for the Past Weeks

 TemperatureHumidityPressure
High86 °F (Aug 24, 3:20 PM)100% (Aug 15, 7:20 AM)30.27 "Hg (Aug 15, 7:20 AM)
Low45 °F (Aug 15, 5:50 AM)35% (Aug 17, 10:50 AM)29.65 "Hg (Aug 19, 1:50 PM)
Average67 °F75%30.00 "Hg
* Reported Aug 15 5:50 AM — Aug 29 11:50 PM, Swanage, Weather by CustomWeather, © 2016

Note: Actual official high and low records may vary slightly from our data, if they occured in-between our weather recording intervals... More about our weather records

Advertising

Swanage Weather History for the Previous 24 Hours

Scroll right to see more
 ConditionsComfort  
Time TempWeatherWind HumidityBarometerVisibility
11:50 PM
Mon, Aug 29
55 °FClear.2 mph88%30.27 "Hg10 mi
11:20 PM55 °FClear.3 mph88%30.27 "Hg10 mi
10:50 PM57 °FClear.2 mph88%30.27 "Hg10 mi
10:20 PM59 °FClear.3 mph88%30.27 "Hg10 mi
9:50 PM57 °FClear.7 mph88%30.27 "Hg10 mi
9:20 PM61 °FClear.6 mph83%30.24 "Hg10 mi
8:50 PM61 °FSunny.6 mph77%30.24 "Hg10 mi
7:50 PM66 °FPassing clouds.6 mph56%30.21 "HgN/A
7:20 PM72 °FPassing clouds.7 mph47%30.21 "HgN/A
6:50 PM72 °FPassing clouds.7 mph50%30.21 "HgN/A
6:20 PM73 °FPassing clouds.9 mph44%30.21 "HgN/A
5:50 PM73 °FPassing clouds.7 mph44%30.21 "HgN/A
5:20 PM72 °FPassing clouds.8 mph47%30.21 "HgN/A
4:50 PM75 °FPassing clouds.6 mph39%30.21 "HgN/A
4:20 PM77 °FPassing clouds.10 mph39%30.21 "HgN/A
3:50 PM73 °FPassing clouds.9 mph44%30.21 "HgN/A
3:20 PM75 °FPassing clouds.9 mph41%30.21 "HgN/A
2:50 PM75 °FPassing clouds.12 mph41%30.21 "HgN/A
2:20 PM75 °FScattered clouds.9 mph41%30.21 "HgN/A
1:50 PM73 °FScattered clouds.7 mph47%30.21 "HgN/A
1:20 PM73 °FScattered clouds.8 mph50%30.21 "HgN/A
12:50 PM72 °FScattered clouds.7 mph53%30.21 "HgN/A
12:20 PM70 °FScattered clouds.9 mph60%30.21 "HgN/A
11:50 AM68 °FScattered clouds.8 mph64%30.21 "HgN/A
11:20 AM68 °FPassing clouds.8 mph64%30.21 "HgN/A
10:50 AM66 °FPassing clouds.9 mph73%30.18 "HgN/A
10:20 AM66 °FPassing clouds.9 mph78%30.18 "HgN/A
9:50 AM66 °FPassing clouds.9 mph78%30.18 "HgN/A
9:20 AM63 °FPassing clouds.7 mph88%30.18 "HgN/A
8:50 AM61 °FPassing clouds.7 mph88%30.15 "HgN/A
8:20 AM59 °FPassing clouds.8 mph94%30.15 "HgN/A
7:50 AM59 °FPassing clouds.7 mph94%30.15 "HgN/A
7:20 AM57 °FSunny.3 mph100%30.15 "Hg10 mi
6:50 AM55 °FClear.3 mph94%30.12 "Hg10 mi
6:20 AM55 °FClear.1 mph94%30.12 "Hg10 mi
Weather by CustomWeather, © 2016

See weather overviewHow to use our weather pages